TFFRTNCM

Guest
Details From TFFR - Pointe a Pitre Le Raizet
To TNCM - St Maarten - Princess Juliana Intl
Flight Number -
Tags generated
Created
Modified
Stats Distance 140 nm / 260 km
Max Altitude 10,700 ft / 3,261 m
Waypoints 4
Social Downloads 12
Likes 0
Share VATSIM

Download

Looking for another format? Having issues loading an existing format? Contact us
Advertisement - Login to hide

Notes

Basic altitude profile: - Ascent Rate: 2500ft/min - Ascent Speed: 250kts - Cruise Altitude: 35000ft - Cruise Speed: 420kts - Descent Rate: 1500ft/min - Descent Speed: 250kts Options: - Use NATs: yes - Use PACOTS: yes - Use low airways: yes - Use high airways: yes

Route

TFFR PPR A517 BIMBO TNCM

ID Type Via Altitude Latitude Longitude Leg Dist Tot Dist Heading (true) Name
O TFFR APT - 0 ft / 0 m 16.26531˚ -61.53181˚ - 0 nm - Pointe a Pitre Le Raizet
PPR DME - 100 ft / 30 m 16.26519˚ -61.54014˚ 0 nm 0 nm 269° / 269° POINTE A PITRE VOR-DME
BIMBO FIX A517 (AWY-LO) 10,700 ft / 3,261 m 16.62667˚ -61.96028˚ 32 nm 32 nm 312° / 312° -
O TNCM APT - 0 ft / 0 m 18.04089˚ -63.10897˚ 107 nm 140 nm 322° / 322° St Maarten - Princess Juliana Intl

Altitude Profile

Advertisement - Login to hide

TFFR

Details ICAO TFFR (PTP)
Name Pointe a Pitre Le Raizet
Region France (Guadeloupe, Martinique, Saint Barthélemy, Saint Martin)
Timezone America/Guadeloupe (UTC-4.0)
Stats Elevation 35 ft / 11 m (AMSL)
Location 16.265306° -61.531808°
Runways 1
Magnetic Variation 14.868° W

METAR

TFFR 262000Z AUTO 13011KT 100V160 9999 FEW027 SCT054 29/23 Q1013 TEMPO 3000 SHRA BKN015TCU

Decode

TAF

TAF TFFR 261700Z 2618/2718 09014KT 9999 SCT030 BKN050 TEMPO 2618/2718 3000 SHRA BKN015TCU PROB40 TEMPO 2703/2715 VRB15G30KT 1000 TSRA SCT011CB BKN015

Decode

Departure Runways

ID Width Length Bearing (true) Bearing (mag) Surface Threshold Offset Overrun Length
11 148 ft / 45 m 11,513 ft / 3,509 m 100.94° 115.81° Asphalt 0 ft / 0 m 0 ft / 0 m
29 148 ft / 45 m 11,513 ft / 3,509 m 280.95° 295.82° Asphalt 0 ft / 0 m 0 ft / 0 m

TNCM

Details ICAO TNCM (SXM)
Name St Maarten - Princess Juliana Intl
Region Caribbean Netherlands, Aruba, Curaçao, Sint Maarten
Timezone Unknown (UTC+0.0)
Stats Elevation 12 ft / 4 m (AMSL)
Location 18.040889° -63.108974°
Runways 1
Magnetic Variation 14.337° W

METAR

TNCM 262000Z 09011KT 050V130 9999 SCT020 29/22 Q1015 NOSIG RMK A2997

Decode

TAF

TAF TNCM 261738Z 2618/2718 10015KT P6SM VCSH SCT018 SCT040

Decode

Destination Runways

ID Width Length Bearing (true) Bearing (mag) Surface Threshold Offset Overrun Length
10 148 ft / 45 m 7,464 ft / 2,275 m 81.43° 95.77° Asphalt 0 ft / 0 m 151 ft / 46 m
28 148 ft / 45 m 7,464 ft / 2,275 m 261.44° 275.78° Asphalt 397 ft / 121 m 0 ft / 0 m

Popular Alternatives